Hourly Weather Bolshoy Zaykin

Today, 25 July, Sunday

Time Temperature Precipitation Wind Pressure Humidity
00:00 +19°C° 0 mm 3 mps 752 mmHg 62%
01:00 +19°C° 0 mm 3 mps 753 mmHg 62%
02:00 +18°C° 0 mm 3 mps 753 mmHg 63%
03:00 +18°C° 0 mm 3 mps 753 mmHg 64%
04:00 +18°C° 0 mm 4 mps 754 mmHg 65%
05:00 +18°C° 0 mm 4 mps 754 mmHg 65%
06:00 +19°C° 0 mm 5 mps 755 mmHg 65%
07:00 +20°C° 0 mm 5 mps 755 mmHg 58%
08:00 +21°C° 0 mm 5 mps 756 mmHg 50%
09:00 +23°C° 0 mm 5 mps 756 mmHg 43%
10:00 +25°C° 0 mm 5 mps 756 mmHg 39%
11:00 +26°C° 0 mm 5 mps 756 mmHg 36%
12:00 +27°C° 0 mm 5 mps 756 mmHg 32%
13:00 +27°C° 0 mm 5 mps 756 mmHg 30%
14:00 +27°C° 0 mm 5 mps 757 mmHg 29%
15:00 +27°C° 0 mm 5 mps 757 mmHg 27%
16:00 +27°C° 0 mm 5 mps 757 mmHg 28%
17:00 +26°C° 0 mm 5 mps 757 mmHg 28%
18:00 +25°C° 0 mm 4 mps 757 mmHg 29%
19:00 +22°C° 0 mm 4 mps 758 mmHg 32%
20:00 +20°C° 0 mm 4 mps 758 mmHg 35%
21:00 +18°C° 0 mm 3 mps 758 mmHg 38%
22:00 +18°C° 0 mm 3 mps 759 mmHg 39%
23:00 +17°C° 0 mm 3 mps 759 mmHg 40%

Tomorrow, 26 July, Monday

Time Temperature Precipitation Wind Pressure Humidity
00:00 +16°C° 0 mm 3 mps 759 mmHg 41%
01:00 +16°C° 0 mm 3 mps 759 mmHg 41%
02:00 +14°C° 0 mm 3 mps 759 mmHg 42%
03:00 +15°C° 0 mm 2 mps 760 mmHg 43%
04:00 +16°C° 0 mm 3 mps 760 mmHg 42%
05:00 +17°C° 0 mm 3 mps 760 mmHg 41%
06:00 +18°C° 0 mm 3 mps 760 mmHg 40%
07:00 +20°C° 0 mm 3 mps 760 mmHg 37%
08:00 +21°C° 0 mm 4 mps 760 mmHg 33%
09:00 +23°C° 0 mm 4 mps 760 mmHg 30%
10:00 +23°C° 0 mm 4 mps 760 mmHg 29%
11:00 +25°C° 0 mm 5 mps 760 mmHg 27%
12:00 +26°C° 0 mm 5 mps 760 mmHg 25%
13:00 +26°C° 0 mm 5 mps 760 mmHg 25%
14:00 +27°C° 0 mm 5 mps 760 mmHg 25%
15:00 +27°C° 0 mm 5 mps 759 mmHg 24%
16:00 +26°C° 0 mm 4 mps 759 mmHg 26%
17:00 +26°C° 0 mm 4 mps 759 mmHg 27%
18:00 +25°C° 0 mm 3 mps 759 mmHg 29%
19:00 +24°C° 0 mm 3 mps 759 mmHg 32%
20:00 +21°C° 0 mm 3 mps 759 mmHg 35%
21:00 +19°C° 0 mm 2 mps 759 mmHg 38%
22:00 +19°C° 0 mm 2 mps 759 mmHg 39%
23:00 +18°C° 0 mm 2 mps 759 mmHg 41%

Day after tomorrow, 27 July, Tuesday

Time Temperature Precipitation Wind Pressure Humidity
00:00 +17°C° 0 mm 2 mps 759 mmHg 43%
01:00 +18°C° 0 mm 1 mps 759 mmHg 44%
02:00 +18°C° 0 mm 1 mps 759 mmHg 45%
03:00 +16°C° 0 mm 1 mps 759 mmHg 46%
04:00 +18°C° 0 mm 1 mps 759 mmHg 44%
05:00 +19°C° 0 mm 1 mps 759 mmHg 42%
06:00 +21°C° 0 mm 1 mps 759 mmHg 40%
07:00 +22°C° 0 mm 1 mps 759 mmHg 37%
08:00 +24°C° 0 mm 2 mps 759 mmHg 34%
09:00 +26°C° 0 mm 2 mps 758 mmHg 31%
10:00 +26°C° 0 mm 3 mps 758 mmHg 30%
11:00 +27°C° 0 mm 3 mps 758 mmHg 29%
12:00 +28°C° 0 mm 4 mps 757 mmHg 28%
13:00 +28°C° 0 mm 4 mps 757 mmHg 28%
14:00 +28°C° 0 mm 4 mps 756 mmHg 27%
15:00 +28°C° 0 mm 5 mps 756 mmHg 27%
16:00 +28°C° 0 mm 5 mps 756 mmHg 29%
17:00 +27°C° 0 mm 4 mps 756 mmHg 32%
18:00 +26°C° 0 mm 4 mps 756 mmHg 34%
19:00 +25°C° 0 mm 4 mps 756 mmHg 38%
20:00 +24°C° 0 mm 3 mps 755 mmHg 41%
21:00 +21°C° 0 mm 3 mps 755 mmHg 45%
22:00 +20°C° 0 mm 3 mps 755 mmHg 50%
23:00 +19°C° 0 mm 3 mps 755 mmHg 54%

28 July, Wednesday

Time Temperature Precipitation Wind Pressure Humidity
00:00 +18°C° 0 mm 3 mps 755 mmHg 58%
01:00 +17°C° 0 mm 3 mps 755 mmHg 65%
02:00 +17°C° 0 mm 4 mps 755 mmHg 72%
03:00 +15°C° 0 mm 4 mps 755 mmHg 79%
04:00 +15°C° 0 mm 4 mps 756 mmHg 75%
05:00 +16°C° 0 mm 5 mps 756 mmHg 72%
06:00 +17°C° 0 mm 5 mps 756 mmHg 68%
07:00 +19°C° 0 mm 5 mps 756 mmHg 59%
08:00 +21°C° 0 mm 6 mps 756 mmHg 49%
09:00 +22°C° 0 mm 6 mps 756 mmHg 39%
10:00 +23°C° 0 mm 6 mps 756 mmHg 35%
11:00 +24°C° 0 mm 6 mps 756 mmHg 31%
12:00 +26°C° 0 mm 6 mps 755 mmHg 27%
13:00 +27°C° 0 mm 5 mps 755 mmHg 26%
14:00 +27°C° 0 mm 5 mps 755 mmHg 24%
15:00 +28°C° 0 mm 5 mps 755 mmHg 22%
16:00 +27°C° 0 mm 4 mps 755 mmHg 24%
17:00 +27°C° 0 mm 4 mps 755 mmHg 25%
18:00 +26°C° 0 mm 3 mps 754 mmHg 26%
19:00 +24°C° 0 mm 3 mps 754 mmHg 29%
20:00 +21°C° 0 mm 2 mps 754 mmHg 32%
21:00 +19°C° 0 mm 2 mps 754 mmHg 34%
22:00 +20°C° 0 mm 1 mps 754 mmHg 35%
23:00 +19°C° 0 mm 1 mps 754 mmHg 35%

29 July, Thursday

Time Temperature Precipitation Wind Pressure Humidity
00:00 +19°C° 0 mm 1 mps 754 mmHg 36%
01:00 +19°C° 0 mm 1 mps 754 mmHg 36%
02:00 +17°C° 0 mm 2 mps 754 mmHg 37%
03:00 +17°C° 0 mm 2 mps 753 mmHg 38%
04:00 +18°C° 0 mm 2 mps 753 mmHg 39%
05:00 +19°C° 0 mm 2 mps 753 mmHg 39%
06:00 +20°C° 0 mm 2 mps 753 mmHg 40%
07:00 +23°C° 0 mm 2 mps 753 mmHg 37%
08:00 +26°C° 0 mm 2 mps 753 mmHg 34%
09:00 +28°C° 0 mm 3 mps 753 mmHg 30%
10:00 +29°C° 0 mm 3 mps 753 mmHg 29%
11:00 +30°C° 0 mm 3 mps 753 mmHg 27%
12:00 +33°C° 0 mm 3 mps 752 mmHg 26%
13:00 +33°C° 0 mm 3 mps 752 mmHg 25%
14:00 +33°C° 0 mm 3 mps 752 mmHg 24%
15:00 +34°C° 0 mm 3 mps 751 mmHg 24%
16:00 +33°C° 0 mm 3 mps 751 mmHg 26%
17:00 +31°C° 0 mm 3 mps 751 mmHg 29%
18:00 +30°C° 0 mm 2 mps 751 mmHg 31%
19:00 +28°C° 0.1 mm 4 mps 752 mmHg 42%
20:00 +25°C° 0.1 mm 5 mps 752 mmHg 52%
21:00 +22°C° 0.1 mm 6 mps 753 mmHg 63%
22:00 +21°C° 0.1 mm 6 mps 753 mmHg 65%
23:00 +21°C° 0.1 mm 5 mps 753 mmHg 67%

30 July, Friday

Time Temperature Precipitation Wind Pressure Humidity
00:00 +21°C° 0.1 mm 4 mps 752 mmHg 69%
01:00 +20°C° 0.2 mm 4 mps 752 mmHg 75%
02:00 +19°C° 0.2 mm 3 mps 752 mmHg 81%
03:00 +19°C° 0.2 mm 3 mps 752 mmHg 87%
04:00 +19°C° 0.3 mm 3 mps 752 mmHg 87%
05:00 +19°C° 0.3 mm 3 mps 753 mmHg 87%
06:00 +19°C° 0.3 mm 3 mps 753 mmHg 87%
07:00 +20°C° 0 mm 3 mps 753 mmHg 84%
08:00 +20°C° 0 mm 3 mps 753 mmHg 80%
09:00 +21°C° 0 mm 3 mps 753 mmHg 76%
10:00 +22°C° 0 mm 3 mps 753 mmHg 70%
11:00 +23°C° 0 mm 4 mps 753 mmHg 63%
12:00 +25°C° 0 mm 5 mps 753 mmHg 56%
13:00 +25°C° 0.1 mm 5 mps 753 mmHg 58%
14:00 +23°C° 0.1 mm 5 mps 753 mmHg 61%
15:00 +23°C° 0.1 mm 5 mps 752 mmHg 63%
16:00 +22°C° 0.5 mm 5 mps 752 mmHg 68%
17:00 +21°C° 0.5 mm 6 mps 752 mmHg 72%
18:00 +20°C° 0.5 mm 7 mps 751 mmHg 77%
19:00 +21°C° 0 mm 6 mps 751 mmHg 72%
20:00 +21°C° 0 mm 6 mps 751 mmHg 67%
21:00 +22°C° 0 mm 6 mps 750 mmHg 62%
22:00 +21°C° 0 mm 5 mps 750 mmHg 60%
23:00 +21°C° 0 mm 4 mps 750 mmHg 58%
Show more

We Need Your Consent

Meteoprog and our Service Providers may store and access personal data such as cookies, device identifiers or other similar technologies on your device and process such data to personalise content and ads, as well as provide social media features and to analyse the traffic.

  • Store and/or access information on your device

    Cookies, device identifiers or other information can be stored or accessed on your device for the purposes indicated above.

  • Personalised ads and content, ad and content measurement, audience insights, and products development

    Ads and content can be personalised based on a profile. More data can be added to better personalise ads and content. Ad and content performance can be measured. Insights about the audience who saw the ads and content can be derived. Such data can be used to develop or improve user’s experience, systems and software.

By clicking ‘I Agree’ you will allow the use of indicated cookies, device identifiers, web beacons or other similar technologies. Your settings can be changed in the browser on your device.

For certain purposes, legitimate interests may be relied on, rather than consent. You can read more about this in our Privacy and Cookie Policy.